{"data":{"norad_id":59519,"intl_designator":"2024-073J","name":"STARLINK-31679","alt_names":[],"object_type":"PAYLOAD","status":"ACTIVE","operator":null,"country":"US","launch_date":"2024-04-17","launch_site_code":"AFETR","launch_vehicle":null,"mission":null,"orbit_class":"UNKNOWN","rcs_meters":null,"size_class":null,"mass_kg":null,"dimensions":null,"purposes":["comms"],"wikipedia_slug":null,"has_3d_model":false,"image_url":null,"decayed_at":null,"tle_current":{"epoch":"2026-05-24T23:14:28.876128Z","epoch_age_seconds":84689,"freshness":"FRESH","line1":"1 59519U 24073J   26144.96838977 -.00002078  00000+0 -66029-4 0  9994","line2":"2 59519  43.0020 236.6640 0000915 273.0959  86.9788 15.27580723117967","mean_motion":15.27580723,"eccentricity":9.15e-5,"inclination_deg":43.002,"raan_deg":236.664,"arg_perigee_deg":273.0959,"mean_anomaly_deg":86.9788,"bstar":-6.6029e-5,"rev_number":11796,"period_min":94.266704097444,"perigee_km":482.41913278871,"apogee_km":483.67472944811,"semimajor_km":6861.1839311184,"source":"CELESTRAK","updated_at":"2026-05-25T13:38:18.975149Z"}}}